Location: Knowlton
(51.2333°N, 1.2667°E)
Time: 03:32:45
(UTC+00:00)

NOSS 3-1 (C) - Pass Details

Date: 18 April 2021
Orbit: 732 x 1476 km, 63.4° (Epoch: 18 April)

Event Time Altitude Azimuth Distance (km) Brightness Sun altitude
Rises 22:15:59 0° 315° (NW) 3,846 7.8 -24.1°
Reaches altitude 10° 22:18:26 10° 315° (NW) 2,988 7.0 -24.2°
Maximum altitude 22:25:44 86° 228° (SW) 1,274 4.0 -24.7°
Enters shadow 22:28:43 45° 143° (SE) 1,736 4.3 -24.9°
